Terminal Aerodrome Forecast
Issued by NWS Wakefield, VA

Home | Current Version | Previous Version | Text Only | Print | Product List | Glossary On
Versions: 1 2 3 4 5 6 7 8 9 10 11 12 13 14 15 16 17 18 19 20 21 22 23 24 25 26 27 28 29 30 31
985
FTUS41 KAKQ 051120
TAFSBY
TAF
KSBY 051120Z 0512/0612 04011KT P6SM OVC007
     FM051400 04009KT P6SM OVC005
     FM051800 03011G18KT P6SM VCSH OVC008
     FM052300 03009G15KT P6SM -SHRA OVC007=

USA.gov is the U.S. government's official web portal to all federal, state and local government web resources and services.